[[{"header":{"parameterUnit":"m.s-1","parameterCategory":1,"la1":30.2991,"la2":30.254,"lo1":-89.0895,"lo2":-89.0444,"dy":0.0017,"dx":0.0017,"nx":28,"ny":28,"refTime":"2023-11-02T03:00:00:Z","depth":0,"parameterNumber":2,"parameterNumberName":"U-component_of_WINDS"},"data":[0,0,0,0,0,0,0,0,0,0,0,0,0,0,0,0,0,0,0,0,0,0,0,0,0,0,0,0,0,0,0,0,0,0,0,0,0,0,0,0,0,0,0,0,0,0,0,0,0,0,0,0,0,0,0,0,0,0,-1.3402,-1.3403,0,-1.3456,-1.3457,-1.3457,-1.3424,-1.3422,-1.3421,-1.3419,-1.3474,-1.3476,-1.3479,0,0,0,0,0,0,0,0,0,0,0,0,0,-1.3267,-1.327,-1.3402,-1.3403,-1.3403,-1.3456,-1.3457,-1.3458,-1.3424,-1.3422,-1.342,-1.3418,-1.3473,-1.3476,-1.348,0,0,0,0,0,0,0,0,0,0,0,0,0,-1.3324,-1.3271,-1.3402,-1.3393,-1.3393,-1.3456,-1.3457,-1.3458,-1.3424,-1.3422,-1.342,-1.3417,-1.3471,-1.3476,-1.348,-1.3555,0,0,-1.3493,-1.3495,0,0,0,0,0,0,0,0,-1.3321,-1.3329,-1.3394,-1.3394,-1.3394,-1.3431,-1.3429,-1.349,-1.3425,-1.3412,-1.3419,-1.3416,-1.3461,-1.3466,-1.3482,-1.3557,-1.356,-1.3494,-1.3496,-1.3498,-1.35,0,0,0,0,0,0,0,-1.3317,-1.3326,-1.3423,-1.3395,-1.3395,-1.3385,-1.3391,-1.3441,-1.3449,-1.3413,-1.3411,-1.3418,-1.3461,-1.3477,-1.3483,-1.356,-1.3494,-1.3498,-1.35,-1.3502,-1.3698,-1.3701,0,0,0,0,0,0,-1.3314,-1.3323,-1.3422,-1.3425,-1.3351,-1.339,-1.3396,-1.3421,-1.3449,-1.3451,-1.342,-1.3416,-1.3471,-1.3478,-1.3484,-1.3573,-1.3498,-1.3502,-1.3505,-1.3696,-1.3699,-1.3702,0,0,0,0,0,0,-1.3311,-1.3323,-1.3419,-1.3374,-1.3385,-1.3395,-1.3423,-1.3424,-1.344,-1.3454,-1.3455,-1.3436,-1.3469,-1.3478,-1.3537,-1.3574,-1.3504,-1.3508,-1.3693,-1.3697,-1.37,-1.3751,0,0,0,0,0,0,-1.3307,-1.3322,-1.3351,-1.3375,-1.3388,-1.3472,-1.3426,-1.3426,-1.3448,-1.3444,-1.3469,-1.3471,-1.3468,-1.3531,-1.3542,-1.3579,-1.3512,-1.3689,-1.3694,-1.3699,-1.3746,-1.3756,-1.3765,0,0,0,0,0,-1.3303,-1.3364,-1.3353,-1.3365,-1.3425,-1.3475,-1.3482,-1.3478,-1.3451,-1.348,-1.3488,-1.347,-1.3568,-1.3537,-1.3549,-1.3588,-1.3687,-1.3693,-1.3699,-1.3742,-1.3754,-1.3764,0,0,0,0,0,0,-1.3345,-1.3367,-1.3355,-1.3426,-1.3448,-1.3469,-1.3505,-1.3492,-1.3523,-1.3517,-1.3511,-1.3517,-1.3578,-1.3589,-1.3554,-1.3661,-1.3623,-1.3632,-1.3652,-1.3664,-1.3673,-1.3669,-1.3516,0,0,0,0,0,-1.3362,-1.3402,-1.3418,-1.3479,-1.3491,-1.3496,-1.3518,-1.3513,-1.3536,-1.3546,-1.3558,-1.3581,-1.3617,-1.3641,-1.3675,-1.3747,-1.3751,-1.378,-1.3789,-1.3797,-1.3804,-1.3842,-1.3854,-1.3721,-1.3721,-1.372,0,0,-1.3399,-1.3416,-1.3441,-1.3488,-1.3505,-1.3545,-1.3505,-1.3549,-1.3578,-1.3552,-1.3609,-1.3619,-1.3643,-1.3709,-1.3739,-1.372,-1.3842,-1.3804,-1.381,-1.3813,-1.3849,-1.3861,-1.3873,-1.3725,-1.3724,-1.3723,0,0,-1.3486,-1.3503,-1.3555,-1.3573,-1.3599,-1.3602,-1.3614,-1.3636,-1.3642,-1.3698,-1.3679,-1.3713,-1.3776,-1.3794,-1.3811,-1.3903,-1.3887,-1.3914,-1.3963,-1.4,-1.401,-1.4019,-1.4052,-1.4063,-1.3921,-1.3922,-1.3922,0,-1.3529,-1.3589,-1.3583,-1.3629,-1.3649,-1.3627,-1.3679,-1.3696,-1.3732,-1.3746,-1.3725,-1.3801,-1.3817,-1.3886,-1.3908,-1.3923,-1.3936,-1.3912,-1.4009,-1.4018,-1.4027,-1.4057,-1.407,-1.3925,-1.3924,-1.3924,-1.3924,0,-1.3639,-1.3681,-1.3719,-1.3754,-1.3779,-1.3828,-1.3828,-1.3854,-1.3846,-1.3851,-1.3907,-1.3925,-1.3961,-1.3977,-1.397,-1.4044,-1.4032,-1.401,-1.3972,-1.4043,-1.4071,-1.4083,-1.3929,-1.3928,-1.3927,-1.3926,0,0,-1.3756,-1.3786,-1.38,-1.3815,-1.3842,-1.3874,-1.392,-1.3956,-1.3977,-1.4002,-1.404,-1.4093,-1.4072,-1.4092,-1.4086,-1.4119,-1.4189,-1.4092,-1.4093,-1.4109,-1.4271,-1.4287,-1.4301,-1.4178,-1.418,-1.4182,-1.4268,0,-1.3844,-1.3926,-1.3922,-1.3998,-1.4036,-1.4014,-1.4055,-1.4075,-1.408,-1.4112,-1.4117,-1.4154,-1.4125,-1.4136,-1.4167,-1.4174,-1.4221,-1.4168,-1.4213,-1.4214,-1.4207,-1.4316,-1.4333,-1.4414,-1.4279,-1.4281,-1.4283,0,-1.3959,-1.3988,-1.4068,-1.4087,-1.4103,-1.414,-1.4171,-1.4202,-1.4223,-1.4225,-1.4246,-1.4235,-1.428,-1.4241,-1.4303,-1.4266,-1.4284,-1.429,-1.4293,-1.4297,-1.4253,-1.4322,-1.444,-1.4452,-1.43,-1.4299,-1.4298,0,-1.4036,-1.4094,-1.4149,-1.4163,-1.4187,-1.4213,-1.4224,-1.4243,-1.4264,-1.4291,-1.4304,-1.4336,-1.4354,-1.4378,-1.4375,-1.4347,-1.4438,-1.4398,-1.444,-1.444,-1.446,-1.4459,-1.4582,-1.4472,-1.4472,-1.4472,-1.4472,0,-1.4135,-1.4185,-1.4184,-1.4218,-1.4272,-1.4266,-1.432,-1.4328,-1.4345,-1.4379,-1.4362,-1.4394,-1.4389,-1.4421,-1.4419,-1.447,-1.4478,-1.4479,-1.4478,-1.4481,-1.4481,-1.4493,-1.4487,-1.4475,-1.4474,-1.4474,-1.4473,0,-1.423,-1.4232,-1.429,-1.4308,-1.4313,-1.4353,-1.4367,-1.4399,-1.4401,-1.4445,-1.4455,-1.4459,-1.4496,-1.4495,-1.4537,-1.4536,-1.4598,-1.4591,-1.4591,-1.459,-1.4631,-1.4627,-1.4766,-1.4783,-1.4662,-1.4663,-1.4664,0,-1.4294,-1.4331,-1.4353,-1.4374,-1.4387,-1.4423,-1.4444,-1.4438,-1.4461,-1.4487,-1.4515,-1.455,-1.4578,-1.4637,-1.4644,-1.4675,-1.4668,-1.4714,-1.4672,-1.4673,-1.4668,-1.4665,-1.4669,-1.4723,-1.4724,-1.4725,-1.4726,0,-1.4406,-1.4404,-1.4436,-1.4467,-1.4493,-1.4517,-1.4539,-1.4558,-1.4554,-1.458,-1.4618,-1.4639,-1.4681,-1.4716,-1.4745,-1.4756,-1.474,-1.4739,-1.475,-1.4753,-1.4752,-1.4752,-1.4613,-1.4736,-1.4735,-1.4734,-1.4734,-1.4733,-1.4487,-1.4519,-1.4538,-1.4573,-1.4589,-1.461,-1.464,-1.4647,-1.4678,-1.4712,-1.4706,-1.4747,-1.4766,-1.4804,-1.4817,-1.4848,-1.4832,-1.4848,-1.4852,-1.4856,-1.4861,-1.4747,-1.4854,-1.4854,-1.4853,-1.4853,-1.4853,0,-1.4597,-1.4608,-1.4641,-1.4672,-1.4699,-1.4682,-1.4705,-1.4729,-1.4766,-1.4785,-1.4812,-1.4854,-1.4887,-1.4895,-1.4927,-1.495,-1.4944,-1.4958,-1.4957,-1.4959,-1.4874,-1.4861,-1.4963,-1.4963,-1.4963,-1.4963,-1.4963,-1.4963,-1.4658,-1.4711,-1.4711,-1.4771,-1.4782,-1.4822,-1.4837,-1.4856,-1.487,-1.4918,-1.4945,-1.4951,-1.4965,-1.4997,-1.5026,-1.5027,-1.5039,-1.5057,-1.5056,-1.4976,-1.4965,-1.4955,-1.4942,-1.506,-1.506,-1.5138,-1.5138,-1.5139]},{"header":{"parameterUnit":"m.s-1","parameterCategory":1,"la1":30.2991,"la2":30.254,"lo1":-89.0895,"lo2":-89.0444,"dy":0.0017,"dx":0.0017,"nx":28,"ny":28,"refTime":"2023-11-02T03:00:00:Z","depth":0,"parameterNumber":3,"parameterNumberName":"V-component_of_WINDS"},"data":[0,0,0,0,0,0,0,0,0,0,0,0,0,0,0,0,0,0,0,0,0,0,0,0,0,0,0,0,0,0,0,0,0,0,0,0,0,0,0,0,0,0,0,0,0,0,0,0,0,0,0,0,0,0,0,0,0,0,-7.0757,-7.0758,0,-7.0882,-7.0884,-7.0885,-7.0762,-7.0757,-7.0752,-7.0748,-7.087,-7.0878,-7.0885,0,0,0,0,0,0,0,0,0,0,0,0,0,-7.0403,-7.041,-7.0757,-7.0758,-7.076,-7.0882,-7.0884,-7.0885,-7.0763,-7.0757,-7.0751,-7.0746,-7.0868,-7.0877,-7.0886,0,0,0,0,0,0,0,0,0,0,0,0,0,-7.0546,-7.0413,-7.0756,-7.0714,-7.0711,-7.0882,-7.0884,-7.0886,-7.0764,-7.0757,-7.075,-7.0743,-7.0865,-7.0876,-7.0887,-7.1105,0,0,-7.0923,-7.0928,0,0,0,0,0,0,0,0,-7.0538,-7.0559,-7.0718,-7.0717,-7.0714,-7.0799,-7.0804,-7.0959,-7.0766,-7.0744,-7.0748,-7.0739,-7.0852,-7.0864,-7.0903,-7.111,-7.1116,-7.0924,-7.0931,-7.0936,-7.0939,0,0,0,0,0,0,0,-7.0528,-7.0552,-7.0806,-7.0721,-7.0718,-7.0686,-7.0698,-7.0833,-7.0837,-7.0745,-7.0737,-7.0754,-7.0849,-7.0893,-7.0905,-7.1117,-7.0924,-7.0934,-7.0941,-7.0946,-7.1506,-7.1514,0,0,0,0,0,0,-7.0524,-7.0545,-7.0802,-7.081,-7.0607,-7.0698,-7.0712,-7.0779,-7.0835,-7.0837,-7.076,-7.0747,-7.0876,-7.0892,-7.0909,-7.1166,-7.0936,-7.0947,-7.0954,-7.1498,-7.1508,-7.1516,0,0,0,0,0,0,-7.0517,-7.0548,-7.0797,-7.0675,-7.0705,-7.0712,-7.0789,-7.0786,-7.0829,-7.0846,-7.0845,-7.0804,-7.0871,-7.0893,-7.1057,-7.1169,-7.0952,-7.0963,-7.1489,-7.1501,-7.1512,-7.1682,0,0,0,0,0,0,-7.0507,-7.0546,-7.0631,-7.0678,-7.0712,-7.0946,-7.0796,-7.0793,-7.085,-7.0835,-7.0887,-7.0889,-7.0867,-7.104,-7.1069,-7.1181,-7.0972,-7.1479,-7.1494,-7.1508,-7.1667,-7.1699,-7.1726,0,0,0,0,0,-7.0495,-7.0673,-7.0636,-7.0667,-7.0818,-7.0952,-7.0971,-7.0944,-7.0859,-7.0943,-7.0954,-7.0887,-7.1152,-7.1058,-7.1089,-7.1206,-7.1472,-7.149,-7.1507,-7.1654,-7.1692,-7.1725,0,0,0,0,0,0,-7.0636,-7.0678,-7.0637,-7.0836,-7.0892,-7.0931,-7.1036,-7.0987,-7.1066,-7.1048,-7.101,-7.1022,-7.1196,-7.1217,-7.1112,-7.1418,-7.1298,-7.1322,-7.1398,-7.1435,-7.1464,-7.1455,-7.0981,0,0,0,0,0,-7.0691,-7.0799,-7.0828,-7.1001,-7.1031,-7.1029,-7.1087,-7.1062,-7.1117,-7.1139,-7.1162,-7.1216,-7.131,-7.1374,-7.1463,-7.1669,-7.1678,-7.1765,-7.1794,-7.1819,-7.184,-7.1949,-7.1988,-7.1575,-7.1575,-7.1574,0,0,-7.0804,-7.084,-7.091,-7.103,-7.107,-7.118,-7.105,-7.1172,-7.1253,-7.1156,-7.1313,-7.1332,-7.1389,-7.1576,-7.1658,-7.1598,-7.1956,-7.1841,-7.186,-7.1869,-7.1971,-7.201,-7.2045,-7.1587,-7.1585,-7.1583,0,0,-7.1066,-7.1106,-7.1253,-7.1296,-7.1359,-7.1356,-7.1392,-7.1439,-7.1448,-7.1605,-7.1535,-7.1629,-7.1794,-7.1838,-7.1882,-7.216,-7.21,-7.2189,-7.2343,-7.245,-7.2482,-7.2511,-7.2609,-7.2644,-7.2211,-7.2211,-7.2212,0,-7.1198,-7.1364,-7.1334,-7.1462,-7.1516,-7.1436,-7.1583,-7.1626,-7.1714,-7.1751,-7.1683,-7.1888,-7.1921,-7.2116,-7.2184,-7.2222,-7.226,-7.2183,-7.2481,-7.2509,-7.2535,-7.2628,-7.2665,-7.2222,-7.2221,-7.2219,-7.2218,0,-7.1523,-7.1638,-7.1749,-7.1839,-7.1905,-7.2042,-7.203,-7.21,-7.2069,-7.2073,-7.2233,-7.227,-7.2364,-7.2408,-7.2378,-7.2598,-7.2558,-7.2487,-7.2364,-7.2585,-7.2672,-7.2707,-7.2237,-7.2233,-7.223,-7.2227,0,0,-7.1878,-7.1949,-7.199,-7.2029,-7.2092,-7.2179,-7.2311,-7.2405,-7.2465,-7.2528,-7.2636,-7.2778,-7.2711,-7.2761,-7.2735,-7.2829,-7.3045,-7.2745,-7.2745,-7.2798,-7.3287,-7.3341,-7.3383,-7.3006,-7.3013,-7.3018,-7.3282,0,-7.2141,-7.2374,-7.235,-7.257,-7.2675,-7.26,-7.2714,-7.2764,-7.2771,-7.2859,-7.2865,-7.2966,-7.2872,-7.2901,-7.299,-7.3,-7.3143,-7.2981,-7.3105,-7.3109,-7.3092,-7.3428,-7.3485,-7.3733,-7.3316,-7.3322,-7.3326,0,-7.248,-7.2557,-7.2788,-7.2834,-7.2877,-7.2981,-7.3064,-7.3151,-7.3204,-7.3202,-7.3258,-7.3216,-7.3346,-7.3222,-7.3399,-7.3289,-7.3338,-7.335,-7.3359,-7.3369,-7.3231,-7.3446,-7.3811,-7.3848,-7.3379,-7.3375,-7.3371,0,-7.2715,-7.2875,-7.3034,-7.307,-7.3128,-7.3202,-7.3229,-7.3276,-7.3334,-7.3406,-7.3442,-7.3528,-7.3574,-7.3641,-7.3621,-7.3533,-7.3802,-7.3677,-7.3802,-7.3803,-7.3862,-7.3859,-7.4239,-7.3896,-7.3895,-7.3894,-7.3894,0,-7.3011,-7.3155,-7.314,-7.3238,-7.3396,-7.3366,-7.3522,-7.354,-7.3582,-7.3679,-7.3619,-7.3711,-7.368,-7.377,-7.3756,-7.3904,-7.3925,-7.3926,-7.392,-7.3931,-7.3931,-7.3962,-7.3944,-7.3904,-7.3902,-7.39,-7.3898,0,-7.3299,-7.3296,-7.3463,-7.3505,-7.3518,-7.3633,-7.3667,-7.3757,-7.3759,-7.3883,-7.3911,-7.3913,-7.4016,-7.4003,-7.4117,-7.4107,-7.4291,-7.4265,-7.4274,-7.4268,-7.4394,-7.4382,-7.4807,-7.4861,-7.4483,-7.4487,-7.449,0,-7.3489,-7.3598,-7.3651,-7.3713,-7.3746,-7.3847,-7.3905,-7.388,-7.3943,-7.4012,-7.4094,-7.4191,-7.4268,-7.4435,-7.4445,-7.4532,-7.4507,-7.465,-7.4519,-7.4526,-7.4507,-7.4501,-7.4511,-7.4675,-7.4679,-7.4683,-7.4686,0,-7.3824,-7.3817,-7.3905,-7.3993,-7.4065,-7.4133,-7.4193,-7.4247,-7.4227,-7.43,-7.4406,-7.4466,-7.4583,-7.4679,-7.4761,-7.4785,-7.4733,-7.4727,-7.476,-7.4772,-7.4773,-7.4773,-7.4343,-7.4717,-7.4714,-7.4712,-7.471,-7.4709,-7.4068,-7.4161,-7.4213,-7.4313,-7.4356,-7.4414,-7.4501,-7.4515,-7.4603,-7.4698,-7.4676,-7.4795,-7.4843,-7.4948,-7.4981,-7.5071,-7.5019,-7.5068,-7.508,-7.5092,-7.5107,-7.4759,-7.5086,-7.5085,-7.5084,-7.5084,-7.5083,0,-7.4399,-7.4429,-7.4522,-7.4609,-7.4688,-7.4633,-7.4697,-7.4765,-7.4871,-7.4922,-7.4999,-7.5119,-7.5212,-7.523,-7.5319,-7.5388,-7.5365,-7.5412,-7.5406,-7.5412,-7.5149,-7.5111,-7.5428,-7.5428,-7.5428,-7.5428,-7.5428,-7.5428,-7.4581,-7.4735,-7.4734,-7.4908,-7.4936,-7.5053,-7.5094,-7.5147,-7.5187,-7.5325,-7.5403,-7.5415,-7.5452,-7.5543,-7.5625,-7.5627,-7.5662,-7.5718,-7.5711,-7.5465,-7.5431,-7.5398,-7.5362,-7.5726,-7.5727,-7.5967,-7.5969,-7.597]}]]